FLOCK 3P-8

Last updated on Wed Feb 14 2018 16:20:16 GMT+0000 (Coordinated Universal Time)

1 41951U 17008D 18045.44857491 .00001819 00000-0 78186-4 0 9999 2 41951 97.4654 110.9313 0009761 69.1884 291.0398 15.23916078 55402
UTC large
Height (km)
Speed (km/s)
/
Latitude / Longitude
Inclination (degrees)
Orbital Period (minutes)
Azimuth
Elevation
Range (km)
Doppler Factor

Next 0 passes for location: London (51.5072 / 0.1276)

Sorry there are no passes over London.